Погода Lublin Radawiec

Погода Lublin Radawiec : погода сейчас, прогноз погоды и архив. Всё, что Вы хотите узнать о погоде Lublin Radawiec!

Поиск расширенной информации на нашем сайте:

Другие новости

Новости СМИ2

Главная страница сайта

Новости сайта

03.07.2017

Напоминаем, что на нашем специализированном сайте Метеоцентр.Азия вы можете получить высокодетализированные автоматические прогнозы погоды по пунктам России, СНГ и мира в авиационном формате (включающие направление и скорость ветра, видимость, явления погоды, количество и форму облачности, нижнюю и верхнюю границу облачности).


Погода Lublin Radawiec - сегодня

Время (UTC), дата Ветер
(°,м/с) 
Видим.   Явления Облачность Т
(°С)
Тd
(°С)
f(%) Тe
(°С)
Pmin
(гПа)
dP
(гПа)
Po
(мм)
O2
(г/м3)
Тmin Tmax R s Состояние
почвы
21 18.06.18 190 (Ю) 23000 м    8/0 средняя 
[Ac trans]
+19.4 +16.3 82 +32  1018  742  276           
00 19.06.18 220 (ЮЗ) 10 км    4/0 средняя 
[Ac trans]
+16.2 +15.2 94 +27  1018.2  -0.1  742  279           
03 19.06.18 280 (З) 15000 м    9/0 средняя 
[Ac trans]
+17.6 +15 85 +28  1018.6  0.5  743  278           
06 19.06.18 330 (СЗ) 16000 м    9/0 средняя 
[Ac trans]
+19.4 +16.2 82 +31  1019.2  0.8  743  276  +14.7  +22.4      сухая 
09 19.06.18 330 (СЗ) 30000 м    1/1 1000 м 
[Cu med, cong]
+24.5 +15 55 +33  1019  0.3  744  272           
12 19.06.18 310 (СЗ) 40000 м    8/8 1500 м 
[Cu med, cong]
+26.5 +11.1 38 +29  1018.8  -0.1  743  271           
15 19.06.18 300 (СЗ) 5{09}  40000 м    3/3 1500 м верхняя 
[Cu med, cong|Ci fib]
+26 +11.4 40 +29  1018.2  -0.6  743  271           
18 19.06.18 300 (СЗ) 2{09}  30000 м    4/4 2000 м верхняя 
[Sc|Ci fib]
+23.8 +11.9 47 +28  1018.9  0.5  743  273  +19.3  +27.1       
21 19.06.18 310 (СЗ) 30000 м    1/0 средняя, верхняя 
[Ac trans|Ci fib]
+18.2 +11.8 66 +23  1020.6  1.1  744  279           
00 20.06.18 300 (СЗ) 50000 м    9/9 2000 м 
[Sc]
+18.3 +12.6 69 +24  1021.5  0.9  745  279           
03 20.06.18 320 (СЗ) 30000 м    3/3 2000 м 
[Sc]
+16.2 +12.6 79 +22  1022.5  0.8  746  281           
06 20.06.18 330 (СЗ) 28000 м    ясно 
+20.8 +13.3 62 +27  1022.9  0.8  746  277  +16.1  +23.8      сухая 
09 20.06.18 310 (СЗ) 35000 м    4/4 1000 м 
[Cu med, cong]
+23.7 +12.1 48 +28  1022.4  -0.2  746  274           
12 20.06.18 300 (СЗ) 4{09}  40000 м    5/5 1500 м 
[Cu med, cong]
+25 +10.5 40 +27  1021.2  -1.1  745  273           
15 20.06.18 340 (С) 35000 м    3/3 1500 м 
[Sc diur, vesp]
+26.6 +11.2 38 +30  1019.5  -1.5  744  271           
18 20.06.18 300 (СЗ) 30000 м    3/1 1500 м верхняя 
[Sc diur, vesp|Ci fib]
+23.3 +14.4 57 +31  1018.6  -1.1  743  273  +20.7  +27.4       
21 20.06.18 тихо ()   20000 м    9/9 2000 м 
[Sc]
+19.5 +13.8 70 +26  1019  743  277           
00 21.06.18 тихо ()   14000 м    ясно 
+17 +13.4 79 +23  1018.3  -0.9  743  279           
03 21.06.18 160 (Ю) 16000 м    9/9 2000 м 
[Sc]
+16.2 +13 81 +24  1017.7  -0.7  742  280           
06 21.06.18 190 (Ю) 20000 м    1/1 2000 м 
[Sc]
+22.3 +16 68 +33  1015.8  -1.3  741  273  +15.8  +23.3      сухая 
09 21.06.18 180 (Ю) 4-9{09}  30000 м    1/0 средняя 
[Ac trans]
+27.9 +15 45 +37  1012.8  -2.4  739  267           
12 21.06.18 230 (ЮЗ) 3-8{09}  30000 м    5/5 1500 м 
[Cu med, cong]
+30 +15 40 +39  1009.4  -3.1  737  264           
15 21.06.18 220 (ЮЗ) 2{08}  30000 м    9/3 1500 м верхняя 
[Cu med, cong|Cs]
+30.5 +14.7 38 +39  1006.6  -2.7  735  263           
18 21.06.18 190 (Ю) 2{09}  35000 м  гроза без осадков{ливн. осадки}  9/3 1000 м кучево-дожд., верхняя 
[Cb cap|Cs]
+25 +16.8 60 +38  1005.6  -1.4  734  267  +22.3  +31.1  0.0     
21 21.06.18 320 (СЗ) 9{16}  20000 м  слаб. ливневой дождь, в посл. час гроза  10/10 1500 м кучево-дожд. 
[Cb cap]
+15.3 +13.1 87 +20  1010.5  3.8  737  278           
Время (UTC), дата Ветер
(°,м/с) 
Видим.   Явления Облачность Т
(°С)
Тd
(°С)
f(%) Тe
(°С)
Pmin
(гПа)
dP
(гПа)
Po
(мм)
O2
(г/м3)
Тmin Tmax R s Состояние
почвы

Для получения пояснительной информации подведите курсор к названию столбца.

ПОГОДА Lublin Radawiec - архив

Всё, что Вы хотите узнать о погоде Lublin Radawiec - удобно и подробно!

Выберите нужную дату (начиная с 1 января 2015* года) и нажмите кнопку "Найти".
Будут отображены архивные сводки погоды по пункту Lublin Radawiec, начиная с указанной даты.


Отображать данные в формате CSV (для использования в таблицах Excel)


Внимание! Наш архив погоды предназначен исключительно для личного некоммерческого использования в познавательных целях. Если Вам необходимы официальные справки о состоянии погоды (для производственных, юридических, коммерческих и т.п. целей), обращайтесь в органы Росгидромета.

*Примечание: данная дата относится к архиву по метеостанциям СССР (Россия, СНГ, Балтия).
Архив по метеостанциям Зарубежной Европы и Азии (кроме Китая) хранится 10 дней, по другим регионам земного шара (Китай, Африка, Америка, Австралия, Океания) - 1 день.

Lublin Radawiec - район местоположения метеостанции


Название, широта, долгота, высота метеостанции:
Lublin Radawiec 51.2°ш. 22.4°д. 240 м над ур. моря [Poland]

Дополнительная информация

В oтличие oт бoльшинства пoгoдных сайтoв мы публикуем пoдрoбную метеoинфoрмацию в детальнoм прoфессиoнальнoм фoрмате.

Характеристики температуры и влажнoсти вoздуха измеряются на высoте 2 м в тени вдали oт зданий и деревьев.
Скoрoсть ветра измеряется на высoте 10 м (на урoвне рoста челoвека скoрoсть ветра ниже в 1.5-2 раза). Если метеoстанция нахoдится в гoрoде или в лесу, тo скoрoсть ветра занижена на 2-4 м/с пo сравнению с oткрытым местoм. Скoрoсть ветра над акватoриями крупных рек и oзёр, а также на вершинах хoлмoв на 2-5 м/с выше, чем в oбычных услoвиях.
Атмoсфернoе давление в разных тoчках местнoсти мoжет значительнo oтличаться oт давления на метеoстанции, в зависимoсти oт услoвий рельефа (при пoдъёме на 10 м давление пoнижается примернo на 1 мм рт.ст.).